Location: Marysville Observatory
(48.1092°N, 122.1645°W)
Time: 11:52:04
(UTC-08:00)

Daily predictions for brighter satellites

Satellite Brightness Start Highest point End
(mag) Time Altitude Azimuth Time Altitude Azimuth Time Altitude Azimuth
Cosmos 1300 Rocket 3.5 16:44:22 10° N 16:48:44 76° E 16:53:03 10° SSE
CSL-04 Debris 4.2 16:44:31 10° SSE 16:49:55 86° ENE 16:55:21 10° NNW
ERBS 3.4 16:47:15 10° W 16:50:26 35° NNW 16:53:37 10° NE
YAOGAN 1 3.2 16:47:56 10° SE 16:51:49 33° ENE 16:55:43 10° N
CSL-04 Rocket 3.9 16:46:51 10° SSE 16:52:18 80° WSW 16:57:52 10° NNW
ATLAS 2AS CENTAUR R/B 3.3 16:45:12 10° NW 16:53:07 51° NE 17:00:42 10° ESE
Meteor 1-27 Rocket 3.8 16:50:45 10° S 16:56:32 65° E 17:02:13 10° NNE
Cosmos 2344 4.4 16:50:12 10° WSW 16:57:52 54° NW 17:07:14 10° NE
ASTEX 1 3.6 16:55:03 10° N 17:00:04 80° W 17:05:05 10° SSW
SL-27 R/B 3.7 16:57:27 10° N 17:00:25 22° ENE 17:03:22 10° ESE
Cosmos 1378 Rocket 3.7 16:59:02 10° S 17:03:12 51° E 17:07:23 10° NNE
Cosmos 1782 3.8 17:00:11 10° SSW 17:04:06 50° WNW 17:08:03 10° N
Cosmos 1844 Rocket 3.8 17:00:02 10° SSE 17:04:27 25° ESE 17:08:55 10° NE
Cosmos 2181 Rocket 4.3 16:59:56 10° SSE 17:05:56 47° E 17:12:04 10° NNE
BREEZE-M DEB (TANK) 3.2 17:05:00 10° SSW 17:06:57 22° SSE 17:08:45 10° E
MOS 1 4.3 17:01:44 10° SSE 17:07:19 63° ENE 17:12:54 10° N
ISS -1.0 17:07:51 10° SSE 17:09:27 13° SE 17:11:04 10° ESE
Cosmos 1455 Rocket 4.1 17:06:48 10° NNE 17:10:26 24° ENE 17:14:03 10° SE
GEOS 3 Rocket 3.7 17:10:06 10° ESE 17:15:03 53° NE 17:20:03 10° NNW
Cosmos 1048 Rocket 4.2 17:15:58 10° NNW 17:21:16 80° WSW 17:26:36 10° SSE
Nadezhda 1 Rocket 4.4 17:16:30 10° SSW 17:22:31 64° WNW 17:28:38 10° N
Cosmos 2341 Rocket 4.0 17:16:30 10° N 17:22:45 89° E 17:28:58 10° S
Cosmos 1295 Rocket 4.4 17:17:02 10° N 17:23:13 71° E 17:29:17 10° SSE
Cosmos 158 Rocket 4.0 17:18:21 10° NNW 17:23:47 78° ENE 17:29:05 10° SSE
COSMOS 2406 3.2 17:19:09 10° NNW 17:24:54 88° ENE 17:30:39 10° SSE
CORIOLIS 4.1 17:19:35 10° SSE 17:24:58 70° ENE 17:30:21 10° N
CZ-3B DEB 3.3 17:25:12 10° S 17:28:51 28° ESE 17:34:11 15° ENE
CZ-3A R/B 3.3 17:24:56 10° SW 17:29:28 79° SE 17:49:44 14° ENE
Cosmos 2278 Rocket 3.6 17:26:24 10° SE 17:30:10 19° E 17:31:58 16° ENE
Cosmos 1484 Rocket 3.2 17:29:42 10° SE 17:33:08 35° ENE 17:36:34 10° N
Meteor 1-5 Rocket 4.1 17:30:12 10° N 17:35:36 83° ENE 17:41:07 10° SSE
ATLAS CENTAUR R/B 3.7 17:33:43 10° WNW 17:37:00 19° NNW 17:40:11 10° NNE
CZ-2C R/B 2.5 17:32:25 10° SSE 17:37:22 84° WSW 17:42:32 10° NNW
Genesis I 4.4 17:36:09 10° NNW 17:39:24 24° NE 17:40:19 22° ENE
SPOT 3 Rocket 3.7 17:34:35 10° S 17:39:48 77° WSW 17:45:00 10° NNW
Cosmos 1238 Rocket 2.9 17:41:18 10° SSE 17:43:55 29° E 17:43:57 29° E
CRYOSAT 2 4.3 17:40:03 10° N 17:45:00 85° E 17:49:54 10° S
Cosmos 1536 4.0 17:45:24 10° NNW 17:49:19 46° W 17:53:13 10° SSW
Cosmos 2082 Rocket 3.1 17:46:02 10° NNW 17:50:52 28° NE 17:52:45 23° ENE
Okean 1 4.1 17:49:41 10° SSE 17:53:14 30° E 17:53:41 29° ENE
IDEFIX/ARIANE 42P 3.0 17:49:02 10° S 17:54:11 64° WSW 17:59:22 10° NNW
COSMOS 2441 4.3 17:49:56 10° SSE 17:54:47 79° ENE 17:59:42 10° NNW
COSMO-SKYMED 1 2.9 17:53:45 21° NE 17:56:18 41° E 18:00:25 10° S
USA 32 3.9 17:53:05 10° S 17:58:18 80° E 18:03:34 10° N
Cosmos 1544 Rocket 3.5 17:54:09 10° N 17:58:38 88° E 18:03:06 10° S
Cosmos 1833 Rocket 3.6 17:54:06 10° NNW 17:58:55 28° NE 17:59:57 26° ENE
Cosmos 1500 3.7 17:56:31 10° N 18:03:21 12° SE 18:03:37 10° SE
Cosmos 864 Rocket 4.4 17:56:35 10° N 18:02:52 78° E 18:09:11 10° SSE
SL-24 DEB 4.2 17:59:59 10° N 18:04:44 63° E 18:09:25 10° S
Cosmos 1975 Rocket 3.6 18:00:47 10° SSW 18:05:01 58° WNW 18:09:19 10° N
SMAP 4.4 18:05:31 10° S 18:09:54 41° W 18:14:20 10° NNW
Meteor 1-18 Rocket 4.2 18:05:18 10° S 18:10:51 66° E 18:16:33 10° NNE
Cosmos 372 Rocket 4.3 18:06:41 10° SSW 18:11:55 68° WNW 18:16:37 13° NNE
CZ-4 R/B 3.7 18:10:04 10° SSW 18:13:38 27° W 18:17:12 10° NW
Thor Agena Rocket 4.2 18:10:16 10° N 18:15:21 57° WNW 18:20:27 10° SW
MSX 4.3 18:11:58 10° S 18:17:40 62° WSW 18:23:23 10° NNW
Cosmos 1812 2.6 18:17:20 10° S 18:21:11 84° E 18:22:34 39° NNE
USA 234 3.5 18:17:19 25° NE 18:21:13 63° NNW 18:27:39 10° WSW
Cosmos 1536 Rocket 3.5 18:17:03 10° S 18:21:28 70° E 18:23:38 30° NNE
Cosmos 2263 Rocket 3.9 18:16:55 10° WSW 18:21:41 28° NW 18:26:30 10° NNE
METEOR-M 4.2 18:16:32 10° SE 18:21:43 54° ENE 18:26:55 10° N
Abrixas 2.9 18:19:16 10° W 18:21:48 60° WNW 18:21:48 60° WNW
NOAA 12 4.0 18:19:05 10° SSE 18:24:19 65° ENE 18:29:33 10° N
Cosmos 494 Rocket 4.1 18:19:51 10° NNW 18:25:05 75° WSW 18:30:19 10° SSE
SKYMED 3 4.4 18:24:07 28° NNE 18:26:25 84° ESE 18:30:45 10° SSW
ERBS 4.4 18:25:27 10° NW 18:27:33 18° NNW 18:27:33 18° NNW
NOSS 3-4 (A) 4.2 18:22:14 10° NW 18:28:36 40° NNE 18:30:10 35° ENE
NOSS 3-4 (C) 4.3 18:22:20 10° NW 18:28:42 39° NNE 18:30:15 35° ENE
Cosmos 1975 2.8 18:25:40 10° N 18:29:46 83° W 18:33:50 10° S
Meteor 2-14 Rocket 4.4 18:24:17 10° N 18:30:23 57° ENE 18:36:25 10° SSE
BREEZE M DEB (TANK) 3.0 18:28:59 10° WNW 18:32:18 86° NNE 18:34:57 37° E
Cosmos 2251 Rocket 4.2 18:27:18 10° NNW 18:32:35 58° WSW 18:37:47 10° S
Resurs 01 Rocket 3.9 18:37:48 13° N 18:37:48 13° N 18:38:17 10° N
SL-27 R/B 4.4 18:32:26 10° NW 18:35:45 32° WSW 18:39:01 10° SSW
NOSS 3-3 (A) 4.2 18:32:56 10° SSW 18:38:53 50° ESE 18:39:53 46° E
NOSS 3-3 (C) 4.2 18:33:02 10° SSW 18:38:59 49° ESE 18:39:57 46° E
ATLAS 2AS CENTAUR R/B 3.6 18:36:31 10° NW 18:44:25 57° WSW 18:51:49 10° SSE
SKYMED 2 3.9 18:42:23 29° N 18:44:28 65° WNW 18:48:45 10° SSW
Meteor 2-21 Rocket 4.3 18:38:44 10° N 18:45:00 79° E 18:51:10 10° SSE
BREEZE-M DEB (TANK) 4.3 18:19:31 10° W 18:45:10 68° NNW 18:47:44 41° NE
ISS -1.8 18:42:10 10° SW 18:44:12 34° SW 18:44:12 34° SW
Cosmos 1844 Rocket 3.1 18:42:24 10° SW 18:47:56 59° WNW 18:50:53 28° NNE
Meteor 2-16 Rocket 4.3 18:45:19 10° N 18:51:25 73° E 18:57:29 10° SSE
Timation 2 Rocket 4.0 18:48:25 10° NNW 18:55:14 81° ENE 18:58:18 36° SE
Cosmos 1844 3.9 18:49:48 10° SW 18:55:20 68° WNW 18:57:20 40° N
Cosmos 1535 Rocket 4.4 18:49:40 10° N 18:56:03 70° E 19:02:17 10° SSE
BREEZE M DEB (TANK) 4.0 18:56:52 10° SW 19:01:08 28° S 19:01:08 28° S
Cosmos 1934 Rocket 4.2 18:56:57 10° N 19:01:37 49° NNE 19:01:37 49° NNE
FengYun 1-2 T 4.2 19:04:46 73° NNE 19:04:46 73° NNE 19:10:05 10° NNW
Cosmos 2278 Rocket 2.2 19:07:55 10° SSW 19:13:35 77° WNW 19:13:52 75° NNW
Cosmos 2239 Rocket 4.4 19:08:49 10° N 19:15:06 86° W 19:21:16 10° S
Meteor 1-13 Rocket 4.2 19:10:08 10° SSW 19:15:31 81° SW 19:15:31 81° SW
Cosmos 1821 Rocket 3.9 19:16:48 10° N 19:22:56 79° W 19:24:17 56° S
Cosmos 2082 Rocket 2.7 19:29:48 10° NNW 19:34:39 56° WNW 19:34:39 56° WNW
Cosmos 1833 Rocket 3.6 19:37:41 10° NNW 19:41:42 45° NW 19:41:42 45° NW
CZ-3B DEB 3.4 19:57:10 10° WSW 20:02:58 70° NNW 20:03:16 69° N
USA 234 4.2 20:04:40 39° NNW 20:04:40 39° NNW 20:09:41 10° WNW
